Home   Weather   Charlottetown   Past weeks

Flag for Canada Past Weather in Charlottetown, Prince Edward Island, Canada — Yesterday and Last 2 Weeks

Now
36 °F

Drizzle. Fog.


Feels Like: 27 °F
Forecast: 35 / 37 °F
Wind: 14 mph from Northwest

Location: Charlottetown

Current Time: Dec 2, 2016 at 3:59:52 pm

Latest Report: Dec 2, 2016 at 3:00 pm


Visibility: 3 mi

Pressure: 29.48 "Hg

Humidity: 93%

Dew Point: 34 °F

Location of CharlottetownLocation

Past Weather in Charlottetown — Graph

°F

Charlottetown Temperature Yesterday

Maximum temperature yesterday: 39 °F (at 10:00 pm)
Minimum temperature yesterday: 32 °F (at 1:00 am)
Average temperature yesterday: 34 °F

High & Low Weather Summary for the Past Weeks

 TemperatureHumidityPressure
High59 °F (Nov 20, 2:00 pm)100% (Nov 17, 7:00 pm)30.38 "Hg (Nov 17, 7:00 pm)
Low28 °F (Nov 26, 6:00 am)58% (Nov 21, 3:00 pm)29.25 "Hg (Dec 2, 1:00 am)
Average38 °F88%29.86 "Hg
* Reported Nov 17 3:00 pm — Dec 2 3:00 pm, Charlottetown, Weather by CustomWeather, © 2016

Note: Actual official high and low records may vary slightly from our data, if they occured in-between our weather recording intervals... More about our weather records

Advertising

Charlottetown Weather History for the Previous 24 Hours

Scroll right to see more
 ConditionsComfort  
Time TempWeatherWind HumidityBarometerVisibility
3:00 pm
Fri, Dec 2
36 °FDrizzle. Fog.14 mph93%29.48 "Hg3 mi
2:00 pm36 °FDrizzle. Fog.14 mph100%29.44 "Hg3 mi
1:00 pm37 °FDrizzle. Fog.14 mph93%29.42 "Hg4 mi
12:00 pm37 °FDrizzle. Fog.12 mph93%29.40 "Hg6 mi
11:48 am37 °FDrizzle. Fog.12 mph93%29.39 "Hg6 mi
11:00 am36 °FDrizzle. Fog.15 mph100%29.39 "Hg2 mi
10:00 am36 °FFog.15 mph93%29.38 "Hg5 mi
9:00 am36 °FFog.15 mph93%29.36 "Hg3 mi
8:00 am34 °FFog.17 mph100%29.34 "Hg2 mi
7:00 am34 °FFog.16 mph100%29.32 "Hg2 mi
6:00 am34 °FFog.14 mph100%29.30 "Hg2 mi
5:00 am34 °FFog.16 mph100%29.29 "Hg2 mi
4:00 am36 °FFog.15 mph93%29.28 "Hg4 mi
3:04 am36 °FFog.12 mph100%29.27 "Hg2 mi
2:00 am39 °FRain. Fog.8 mph93%29.26 "Hg1 mi
1:50 am39 °FLight rain. Fog.7 mph93%29.26 "Hg1 mi
1:00 am37 °FLight rain. Fog.7 mph100%29.25 "Hg3 mi
12:00 am39 °FLight rain. Low clouds.9 mph93%29.26 "Hg5 mi
11:00 pm
Thu, Dec 1
39 °FLow clouds.15 mph87%29.26 "Hg15 mi
10:00 pm39 °FLow clouds.14 mph87%29.28 "Hg15 mi
9:00 pm37 °FLow clouds.15 mph93%29.30 "Hg15 mi
8:00 pm37 °FLight rain. Low clouds.21 mph93%29.36 "Hg15 mi
7:00 pm37 °FLight rain. Fog.12 mph87%29.40 "Hg6 mi
6:00 pm37 °FLight rain. Low clouds.17 mph87%29.44 "Hg8 mi
5:00 pm36 °FLight rain. Low clouds.24 mph93%29.46 "Hg8 mi
4:00 pm34 °FSleet. Fog.25 mph100%29.50 "Hg6 mi
3:00 pm34 °FLight rain. Fog.22 mph93%29.58 "Hg3 mi
Weather by CustomWeather, © 2016

See weather overviewHow to use our weather pages